MDJB

La Isabela International Airport

Airport
ICAO code
MDJB
IATA Code
JBQ
Summary
ICAO Region
CARSAM
ICAO Territory
Location

Vertedero La Isabela, Dominican Republic

Serving
Santo Domingo
Elevation
30 ft
Coordinates
18° 34' 33" N , 69° 58' 55" W
KCC
Airport WX
Tropical Revolving Storm
Metar
MDJB 131800Z 18010KT 9999 SCT020 34/26 Q1015

International airport serving the city of Santo Domingo, Dominican Republic.

Climatology

Tropical savannah climate (Köppen climate classification Aw)

Runways

Designator Length Width Surface Rops
1/19 1650 30 ASP No/No

Airport map

Aerial View

SKYbrary Partners:

Safety knowledge contributed by: